Evergreen, AL

3:52 PM CST on December 15, 2017 (GMT -0600)
Middleton

Weather History for KGZH - September, 2013

Change the Weather History Date:

Tuesday, September 3, 2013

  Actual Average (KPRN) Record (KPRN)
Temperature  
Mean Temperature 83 °F -  
Max Temperature 93 °F 89 °F 102 °F (1951)
Min Temperature 73 °F 67 °F 55 °F (1967)
Cooling Degree Days 18    
Growing Degree Days 33 (Base 50)    
Moisture  
Dew Point 73 °F    
Average Humidity 83    
Maximum Humidity 94    
Minimum Humidity 56    
Precipitation  
Precipitation 0.00 in - - ()
Sea Level Pressure  
Sea Level Pressure 29.96 in    
Wind  
Wind Speed 2 mph (South)    
Max Wind Speed 14 mph    
Max Gust Speed 24 mph    
Visibility 8 miles    
Events Rain , Thunderstorm    
Averages and records for this station are not official NWS values.
T = Trace of Precipitation, MM = Missing Value Source: NWS Daily Summary

Daily Weather History Graph

Daily Weather History Graph

Search for Another Location

Airport or City:

Trip Planner

Search our weather history database for the weather conditions in past years. The results will help you decide how hot, cold, wet, or windy it might be!

Date:

Astronomy

Sep. 03, 2013 Rise Set
Actual Time 6:25 AM CDT 7:08 PM CDT
Civil Twilight 6:00 AM CDT 7:33 PM CDT
Nautical Twilight 5:31 AM CDT 8:02 PM CDT
Astronomical Twilight 5:01 AM CDT 8:32 PM CDT
Moon 4:42 AM CDT (9/3) 5:54 PM CDT (9/3)
Length of Visible Light 13h 32m
Length of Day
12h 43m
Waning Crescent, 3% of the Moon is Illuminated
Sep 3
Waning Crescent
Sep 5
New
Sep 12
First Quarter
Sep 19
Full
Sep 26
Last Quarter

Hourly Weather History & Observations

Time (CDT) Temp. Heat Index Dew Point Humidity Pressure Visibility Wind Dir Wind Speed Gust Speed Precip Events Conditions
12:53 AM 75.0 °F - 72.0 °F 90% 29.94 in 6.0 mi Calm Calm - N/A   Clear
1:53 AM 75.0 °F - 71.1 °F 87% 29.94 in 9.0 mi Calm Calm - N/A   Clear
2:53 AM 73.9 °F - 71.1 °F 91% 29.94 in 5.0 mi Calm Calm - N/A   Clear
3:53 AM 73.9 °F - 71.1 °F 91% 29.94 in 4.0 mi Calm Calm - N/A   Clear
4:53 AM 73.0 °F - 71.1 °F 93% 29.93 in 4.0 mi Calm Calm - N/A   Clear
5:40 AM 73.4 °F - 71.6 °F 94% 29.96 in 5.0 mi Calm Calm - N/A   Scattered Clouds
5:49 AM 73.4 °F - 71.6 °F 94% 29.96 in 5.0 mi Calm Calm - N/A   Mostly Cloudy
5:53 AM 73.9 °F - 71.1 °F 91% 29.95 in 5.0 mi Calm Calm - N/A   Mostly Cloudy
6:04 AM 73.4 °F - 71.6 °F 94% 29.96 in 5.0 mi South 3.5 mph - N/A   Scattered Clouds
6:53 AM 75.0 °F - 72.0 °F 90% 29.96 in 4.0 mi Calm Calm - N/A   Partly Cloudy
7:53 AM 75.9 °F - 73.0 °F 91% 29.97 in 5.0 mi Calm Calm - N/A   Clear
8:28 AM 77.0 °F - 73.4 °F 89% 29.99 in 6.0 mi Calm Calm - N/A   Scattered Clouds
8:34 AM 78.8 °F - 73.4 °F 83% 30.00 in 6.0 mi Calm Calm - N/A   Mostly Cloudy
8:53 AM 79.0 °F - 75.0 °F 88% 29.99 in 7.0 mi Calm Calm - N/A   Mostly Cloudy
9:00 AM 78.8 °F - 75.2 °F 89% 30.00 in 8.0 mi Calm Calm - N/A   Scattered Clouds
9:53 AM 86.0 °F 96.0 °F 75.9 °F 72% 29.99 in 10.0 mi Variable 3.5 mph - N/A   Clear
10:53 AM 89.1 °F 101.4 °F 77.0 °F 67% 30.00 in 10.0 mi Calm Calm - N/A   Clear
11:53 AM 91.0 °F 101.6 °F 75.0 °F 59% 29.98 in 10.0 mi Calm Calm - N/A Thunderstorm Clear
12:42 PM 93.2 °F 105.0 °F 75.2 °F 56% 29.96 in 10.0 mi Variable 3.5 mph - N/A Thunderstorm Clear
12:53 PM 91.9 °F 103.2 °F 75.0 °F 58% 29.95 in 10.0 mi Calm Calm - N/A Thunderstorm Scattered Clouds
1:22 PM 87.8 °F 97.6 °F 75.2 °F 66% 29.95 in 10.0 mi South 8.1 mph - N/A   Scattered Clouds
1:53 PM 87.1 °F 96.3 °F 75.0 °F 67% 29.93 in 10.0 mi SSW 4.6 mph - N/A   Mostly Cloudy
2:53 PM 86.0 °F 93.8 °F 73.9 °F 67% 29.92 in 10.0 mi SSE 9.2 mph - N/A   Partly Cloudy
3:23 PM 80.6 °F 85.4 °F 73.4 °F 79% 29.97 in 10.0 mi SSE 13.8 mph 24.2 mph N/A Thunderstorm Mostly Cloudy
3:38 PM 78.8 °F - 73.4 °F 83% 29.99 in 7.0 mi SSW 9.2 mph - 0.00 in Rain Light Rain
3:53 PM 77.0 °F - 72.0 °F 84% 29.97 in 10.0 mi South 13.8 mph 23.0 mph 0.00 in Rain Light Rain
4:13 PM 78.8 °F - 71.6 °F 78% 29.96 in 10.0 mi South 12.7 mph - 0.00 in Thunderstorm Partly Cloudy
4:28 PM 78.8 °F - 71.6 °F 78% 29.94 in 10.0 mi South 8.1 mph - 0.00 in   Clear
4:53 PM 77.0 °F - 71.1 °F 82% 29.93 in 10.0 mi South 5.8 mph - 0.00 in   Clear
5:53 PM 77.0 °F - 72.0 °F 84% 29.94 in 10.0 mi Calm Calm - N/A   Mostly Cloudy
6:53 PM 75.9 °F - 72.0 °F 87% 29.95 in 10.0 mi SSW 3.5 mph - N/A   Clear
7:53 PM 73.9 °F - 71.1 °F 91% 29.96 in 10.0 mi Calm Calm - N/A   Clear
8:53 PM 75.0 °F - 72.0 °F 90% 29.99 in 9.0 mi SSE 3.5 mph - N/A   Clear
9:53 PM 75.0 °F - 72.0 °F 90% 30.01 in 9.0 mi Calm Calm - N/A   Clear
10:53 PM 73.0 °F - 71.1 °F 93% 30.01 in 6.0 mi Calm Calm - N/A   Clear
11:53 PM 73.0 °F - 71.1 °F 93% 30.00 in 5.0 mi Calm Calm - N/A   Clear